sat.trackr.live / text

‹ back to catalog

STARLINK-5053

NORAD 53913 · 2022-119AD

PAYLOAD ACTIVE UNKNOWN

§ Identity

Operator
Country
US
Launch date
2022-09-24
Launch site
AFETR
Launch vehicle
Mass (kg)
RCS (m²)

Purposes: comms

External: N2YO · Heavens-Above · Gunter

§ Orbital elements

Epoch: 2026-09-20T05:27:16.795008Z

Period
95.44 min
Inclination
53.1597°
Eccentricity
0.0001557
Mean motion
15.08831244 rev/d
Perigee alt
538.7 km
Apogee alt
540.8 km
Semi-major
6,917.9 km
B*
3.6300e-5
RAAN
160.1316°
Arg perigee
81.4895°
Mean anomaly
278.6273°
Rev number
22,119

§ Raw data

STARLINK-50531 53913U 22119AD  26263.22727772  .00000290  00000+0  36300-4 0  99972 53913  53.1597 160.1316 0001557  81.4895 278.6273 15.08831244221190

JSON: /api/v1/satellites/53913 · /tle

For live sub-satellite position, see the globe view (requires WebGL).

§ Visibility from observer

Set your observer location to see the next 7 days of passes ≥ 10°. The values pass through the URL so the page stays shareable.

No JS? Fill the form by hand. The geolocation button needs JavaScript.